H1 CPF 2 NER 2025 8 25 9 237 01 glonass138 H2 1805301 9138 43508 2025 8 25 0 0 0 2025 8 28 23 45 0 900 1 1 0 0 0 1 H9 10 0 60912 0.00000 0 -11068616.214 22248102.269 5823267.088 10 0 60912 900.00000 0 -10609065.954 21444743.545 8886194.243 10 0 60912 1800.00000 0 -10120144.139 20254872.624 11776784.891 10 0 60912 2700.00000 0 -9658871.643 18696360.146 14438977.393 10 0 60912 3600.00000 0 -9278655.087 16799898.723 16821131.805 10 0 60912 4500.00000 0 -9026866.285 14607907.104 18877027.501 10 0 60912 5400.00000 0 -8942687.994 12172957.651 20566756.505 10 0 60912 6300.00000 0 -9055316.729 9555791.614 21857495.691 10 0 60912 7200.00000 0 -9382598.539 6823003.772 22724143.257 10 0 60912 8100.00000 0 -9930155.525 4044491.591 23149807.446 10 0 60912 9000.00000 0 -10691040.554 1290773.728 23126138.190 10 0 60912 9900.00000 0 -11645935.604 -1369711.773 22653495.101 10 0 60912 10800.00000 0 -12763886.559 -3873218.367 21740948.222 10 0 60912 11700.00000 0 -14003544.890 -6163103.356 20406110.930 10 0 60912 12600.00000 0 -15314865.351 -8191942.042 18674807.420 10 0 60912 13500.00000 0 -16641189.538 -9923256.212 16580580.333 10 0 60912 14400.00000 0 -17921628.726 -11332785.320 14164047.110 10 0 60912 15300.00000 0 -19093646.334 -12409247.583 11472116.747 10 0 60912 16200.00000 0 -20095731.578 -13154559.468 8557081.504 10 0 60912 17100.00000 0 -20870051.509 -13583504.769 5475600.806 10 0 60912 18000.00000 0 -21364969.057 -13722867.674 2287597.108 10 0 60912 18900.00000 0 -21537320.002 -13610066.979 -944914.543 10 0 60912 19800.00000 0 -21354351.738 -13291349.937 -4159039.839 10 0 60912 20700.00000 0 -20795240.813 -12819622.978 -7292236.967 10 0 60912 21600.00000 0 -19852124.122 -12252012.197 -10283541.793 10 0 60912 22500.00000 0 -18530599.259 -11647257.932 -13074761.676 10 0 60912 23400.00000 0 -16849672.152 -11063054.843 -15611613.712 10 0 60912 24300.00000 0 -14841153.619 -10553451.020 -17844784.608 10 0 60912 25200.00000 0 -12548529.841 -10166416.911 -19730891.174 10 0 60912 26100.00000 0 -10025353.933 -9941687.367 -21233322.648 10 0 60912 27000.00000 0 -7333225.874 -9908968.174 -22322948.729 10 0 60912 27900.00000 0 -4539445.100 -10086582.786 -22978680.038 10 0 60912 28800.00000 0 -1714433.577 -10480616.052 -23187870.794 10 0 60912 29700.00000 0 1070963.617 -11084590.699 -22946556.635 10 0 60912 30600.00000 0 3748188.417 -11879689.782 -22259523.706 10 0 60912 31500.00000 0 6253578.594 -12835515.355 -21140208.356 10 0 60912 32400.00000 0 8530767.863 -13911351.200 -19610429.864 10 0 60912 33300.00000 0 10532778.715 -15057876.342 -17699961.745 10 0 60912 34200.00000 0 12223722.295 -16219257.293 -15445950.115 10 0 60912 35100.00000 0 13580036.103 -17335531.156 -12892190.431 10 0 60912 36000.00000 0 14591209.559 -18345179.552 -10088276.532 10 0 60912 36900.00000 0 15259968.770 -19187785.346 -7088638.383 10 0 60912 37800.00000 0 15601914.314 -19806660.623 -3951487.032 10 0 60912 38700.00000 0 15644628.727 -20151335.535 -737687.093 10 0 60912 39600.00000 0 15426292.338 -20179803.373 2490421.455 10 0 60912 40500.00000 0 14993866.697 -19860427.417 5670229.383 10 0 60912 41400.00000 0 14400922.738 -19173429.182 8740068.973 10 0 60912 42300.00000 0 13705205.650 -18111895.186 11640406.011 10 0 60912 43200.00000 0 12966039.255 -16682259.450 14314990.126 10 0 60912 44100.00000 0 12241679.289 -14904240.746 16711941.452 10 0 60912 45000.00000 0 11586726.976 -12810236.340 18784752.867 10 0 60912 45900.00000 0 11049711.583 -10444196.458 20493188.841 10 0 60912 46800.00000 0 10670943.537 -7860025.227 21804063.920 10 0 60912 47700.00000 0 10480728.311 -5119573.412 22691886.158 10 0 60912 48600.00000 0 10498016.189 -2290305.097 23139353.337 10 0 60912 49500.00000 0 10729544.953 557266.052 23137692.486 10 0 60912 50400.00000 0 11169511.970 3352265.723 22686836.030 10 0 60912 51300.00000 0 11799790.194 6026162.548 21795430.792 10 0 60912 52200.00000 0 12590679.864 8515375.085 20480679.110 10 0 60912 53100.00000 0 13502165.327 10763674.544 18768014.328 10 0 60912 54000.00000 0 14485625.070 12724283.911 16690616.067 10 0 60912 54900.00000 0 15485923.877 14361586.410 14288773.723 10 0 60912 55800.00000 0 16443799.599 15652372.230 11609109.696 10 0 60912 56700.00000 0 17298444.223 16586571.624 8703676.787 10 0 60912 57600.00000 0 17990170.292 17167443.883 5628946.869 10 0 60912 58500.00000 0 18463049.635 17411214.559 2444710.506 10 0 60912 59400.00000 0 18667412.154 17346176.682 -787090.823 10 0 60912 60300.00000 0 18562098.052 17011294.476 -4003576.578 10 0 60912 61200.00000 0 18116367.085 16454369.363 -7142158.602 10 0 60912 62100.00000 0 17311382.981 15729846.677 -10141767.242 10 0 60912 63000.00000 0 16141209.116 14896356.886 -12944047.269 10 0 60912 63900.00000 0 14613272.462 14014096.340 -15494499.392 10 0 60912 64800.00000 0 12748275.362 13142159.251 -17743544.467 10 0 60912 65700.00000 0 10579558.241 12335934.443 -19647489.308 10 0 60912 66600.00000 0 8151939.505 11644677.323 -21169375.186 10 0 60912 67500.00000 0 5520080.964 11109359.801 -22279692.735 10 0 60912 68400.00000 0 2746446.806 10760888.679 -22956949.871 10 0 60912 69300.00000 0 -101058.860 10618767.259 -23188082.325 10 0 60912 70200.00000 0 -2951677.810 10690255.914 -22968699.582 10 0 60912 71100.00000 0 -5734499.712 10970066.231 -22303162.211 10 0 60912 72000.00000 0 -8381168.565 11440600.880 -21204489.738 10 0 60912 72900.00000 0 -10828481.956 12072728.370 -19694101.403 10 0 60912 73800.00000 0 -13020776.115 12827059.575 -17801395.154 10 0 60912 74700.00000 0 -14911998.791 13655671.860 -15563173.242 10 0 60912 75600.00000 0 -16467385.032 14504208.028 -13022925.589 10 0 60912 76500.00000 0 -17664667.484 15314261.603 -10229984.719 10 0 60912 77400.00000 0 -18494772.181 16025948.020 -7238568.537 10 0 60912 78300.00000 0 -18961972.186 16580553.456 -4106729.370 10 0 60912 79200.00000 0 -19083494.039 16923149.811 -895229.479 10 0 60912 80100.00000 0 -18888594.713 17005065.655 2333635.200 10 0 60912 81000.00000 0 -18417148.863 16786109.018 5517240.366 10 0 60912 81900.00000 0 -17717806.539 16236448.209 8593844.453 10 0 60912 82800.00000 0 -16845799.382 15338071.199 11503782.084 10 0 60912 83700.00000 0 -15860487.911 14085761.649 14190616.974 10 0 60912 84600.00000 0 -14822753.162 12487549.867 16602232.171 10 0 60912 85500.00000 0 -13792342.279 10564618.813 18691836.855 10 0 60913 0.00000 0 -12825279.504 8350668.143 20418870.477 10 0 60913 900.00000 0 -11971450.540 5890760.253 21749788.044 10 0 60913 1800.00000 0 -11272462.725 3239698.006 22658709.489 10 0 60913 2700.00000 0 -10759868.861 459996.237 23127923.959 10 0 60913 3600.00000 0 -10453830.477 -2380467.282 23148236.995 10 0 60913 4500.00000 0 -10362276.164 -5211026.360 22719154.765 10 0 60913 5400.00000 0 -10480590.658 -7960920.604 21848901.292 10 0 60913 6300.00000 0 -10791848.204 -10561998.573 20554267.741 10 0 60913 7200.00000 0 -11267580.974 -12951318.344 18860295.914 10 0 60913 8100.00000 0 -11869050.894 -15073538.024 16799801.187 10 0 60913 9000.00000 0 -12548971.964 -16882996.993 14412743.175 10 0 60913 9900.00000 0 -13253610.989 -18345401.283 11745455.495 10 0 60913 10800.00000 0 -13925178.366 -19439042.704 8849748.931 10 0 60913 11700.00000 0 -14504407.928 -20155500.770 5781904.951 10 0 60913 12600.00000 0 -14933216.439 -20499797.990 2601579.165 10 0 60913 13500.00000 0 -15157329.561 -20490002.283 -629363.739 10 0 60913 14400.00000 0 -15128762.203 -20156293.593 -3848060.293 10 0 60913 15300.00000 0 -14808047.123 -19539534.706 -6991879.363 10 0 60913 16200.00000 0 -14166116.217 -18689407.333 -9999649.137 10 0 60913 17100.00000 0 -13185753.681 -17662193.112 -12812855.105 10 0 60913 18000.00000 0 -11862558.481 -16518294.219 -15376784.766 10 0 60913 18900.00000 0 -10205374.500 -15319599.255 -17641596.092 10 0 60913 19800.00000 0 -8236169.364 -14126806.358 -19563288.547 10 0 60913 20700.00000 0 -5989366.396 -12996817.041 -21104557.653 10 0 60913 21600.00000 0 -3510657.162 -11980310.850 -22235516.696 10 0 60913 22500.00000 0 -855343.923 -11119602.873 -22934272.031 10 0 60913 23400.00000 0 1913719.158 -10446873.846 -23187341.458 10 0 60913 24300.00000 0 4728500.539 -9982846.556 -22989908.295 10 0 60913 25200.00000 0 7518383.163 -9735963.259 -22345906.985 10 0 60913 26100.00000 0 10212866.345 -9702097.605 -21267939.223 10 0 60913 27000.00000 0 12744266.073 -9864812.113 -19777022.784 10 0 60913 27900.00000 0 15050302.310 -10196149.363 -17902178.248 10 0 60913 28800.00000 0 17076466.680 -10657922.758 -15679861.852 10 0 60913 29700.00000 0 18778073.130 -11203451.841 -13153255.491 10 0 60913 30600.00000 0 20121907.357 -11779668.639 -10371427.566 10 0 60913 31500.00000 0 21087407.454 -12329505.940 -7388380.823 10 0 60913 32400.00000 0 21667327.717 -12794466.672 -4262005.535 10 0 60913 33300.00000 0 21867859.082 -13117265.942 -1052958.132 10 0 60913 34200.00000 0 21708202.237 -13244434.242 2176513.005 10 0 60913 35100.00000 0 21219612.292 -13128771.933 5363771.934 10 0 60913 36000.00000 0 20443955.870 -12731551.365 8447006.470 10 0 60913 36900.00000 0 19431841.778 -12024373.520 11366422.998 10 0 60913 37800.00000 0 18240404.117 -10990600.542 14065401.856 10 0 60913 38700.00000 0 16930831.065 -9626303.210 16491591.117 10 0 60913 39600.00000 0 15565742.987 -7940682.649 18597917.923 10 0 60913 40500.00000 0 14206529.700 -5955947.442 20343498.197 10 0 60913 41400.00000 0 12910758.161 -3706649.870 21694427.558 10 0 60913 42300.00000 0 11729758.860 -1238507.492 22624438.510 10 0 60913 43200.00000 0 10706491.623 1393242.494 23115411.516 10 0 60913 44100.00000 0 9873779.840 4125889.272 23157730.182 10 0 60913 45000.00000 0 9252986.889 6891611.337 22750473.612 10 0 60913 45900.00000 0 8853190.081 9620059.613 21901441.860 10 0 60913 46800.00000 0 8670886.835 12241054.705 20627013.443 10 0 60913 47700.00000 0 8690245.628 14687287.149 18951836.874 10 0 60913 48600.00000 0 8883891.467 16896909.049 16908361.296 10 0 60913 49500.00000 0 9214193.166 18815909.586 14536214.363 10 0 60913 50400.00000 0 9634998.497 20400175.453 11881438.582 10 0 60913 51300.00000 0 10093744.133 21617150.107 8995600.260 10 0 60913 52200.00000 0 10533851.184 22447022.239 5934787.916 10 0 60913 53100.00000 0 10897304.684 22883393.462 2758519.605 10 0 60913 54000.00000 0 11127307.195 22933397.118 -471419.365 10 0 60913 54900.00000 0 11170893.257 22617263.297 -3692185.123 10 0 60913 55800.00000 0 10981392.818 21967348.719 -6841105.946 10 0 60913 56700.00000 0 10520638.047 21026672.885 -9856910.056 10 0 60913 57600.00000 0 9760818.835 19847022.980 -12680925.619 10 0 60913 58500.00000 0 8685907.235 18486708.302 -15258228.616 10 0 60913 59400.00000 0 7292589.539 17008059.803 -17538715.575 10 0 60913 60300.00000 0 5590665.674 15474780.914 -19478079.819 10 0 60913 61200.00000 0 3602898.286 13949261.847 -21038672.137 10 0 60913 62100.00000 0 1364317.174 12489970.731 -22190229.311 10 0 60913 63000.00000 0 -1078992.337 11149031.220 -22910456.825 10 0 60913 63900.00000 0 -3671566.828 9970087.985 -23185455.054 10 0 60913 64800.00000 0 -6350638.450 8986548.947 -23009981.446 10 0 60913 65700.00000 0 -9048518.790 8220276.965 -22387544.339 10 0 60913 66600.00000 0 -11695194.199 7680784.657 -21330327.297 10 0 60913 67500.00000 0 -14221025.135 7364964.733 -19858945.961 10 0 60913 68400.00000 0 -16559438.011 7257365.830 -18002042.520 10 0 60913 69300.00000 0 -18649498.270 7331000.953 -15795725.842 10 0 60913 70200.00000 0 -20438258.528 7548653.430 -13282868.168 10 0 60913 71100.00000 0 -21882784.928 7864624.494 -10512271.938 10 0 60913 72000.00000 0 -22951778.179 8226848.201 -7537722.770 10 0 60913 72900.00000 0 -23626722.623 8579284.046 -4416946.805 10 0 60913 73800.00000 0 -23902516.297 8864486.012 -1210492.501 10 0 60913 74700.00000 0 -23787556.501 9026239.434 2019441.535 10 0 60913 75600.00000 0 -23303278.153 9012154.213 5210210.017 10 0 60913 76500.00000 0 -22483164.916 8776104.775 8299932.514 10 0 60913 77400.00000 0 -21371275.099 8280413.586 11228689.637 10 0 60913 78300.00000 0 -20020344.471 7497685.789 13939680.850 10 0 60913 79200.00000 0 -18489545.655 6412217.165 16380321.761 10 0 60913 80100.00000 0 -16841997.955 5020915.383 18503259.915 10 0 60913 81000.00000 0 -15142131.678 3333694.824 20267289.855 10 0 60913 81900.00000 0 -13453016.876 1373327.116 21638150.178 10 0 60913 82800.00000 0 -11833767.802 -825247.879 22589187.543 10 0 60913 83700.00000 0 -10337131.041 -3216123.541 23101875.119 10 0 60913 84600.00000 0 -9007357.609 -5744092.126 23166175.573 10 0 60913 85500.00000 0 -7878447.514 -8346706.900 22780741.506 10 0 60914 0.00000 0 -6972839.858 -10956656.401 21952949.232 10 0 60914 900.00000 0 -6300602.612 -13504354.897 20698764.157 10 0 60914 1800.00000 0 -5859157.036 -15920638.920 19042440.802 10 0 60914 2700.00000 0 -5633546.662 -18139463.110 17016060.892 10 0 60914 3600.00000 0 -5597240.838 -20100480.052 14658918.537 10 0 60914 4500.00000 0 -5713438.538 -21751397.988 12016763.184 10 0 60914 5400.00000 0 -5936817.508 -23050017.573 9140914.413 10 0 60914 6300.00000 0 -6215654.735 -23965862.108 6087265.300 10 0 60914 7200.00000 0 -6494228.159 -24481332.530 2915193.672 10 0 60914 8100.00000 0 -6715397.376 -24592338.293 -313597.350 10 0 60914 9000.00000 0 -6823253.093 -24308377.389 -3536286.395 10 0 60914 9900.00000 0 -6765722.008 -23652062.117 -6690164.117 10 0 60914 10800.00000 0 -6497015.467 -22658110.769 -9713861.783 10 0 60914 11700.00000 0 -5979816.890 -21371848.171 -12548553.241 10 0 60914 12600.00000 0 -5187114.081 -19847278.900 -15139105.912 10 0 60914 13500.00000 0 -4103597.757 -18144815.077 -17435157.683 10 0 60914 14400.00000 0 -2726566.195 -16328755.092 -19392098.321 10 0 60914 15300.00000 0 -1066296.973 -14464619.958 -20971936.128 10 0 60914 16200.00000 0 854130.582 -12616459.569 -22144033.221 10 0 60914 17100.00000 0 2999555.404 -10844242.004 -22885695.562 10 0 60914 18000.00000 0 5323967.479 -9201435.084 -23182606.958 10 0 60914 18900.00000 0 7772202.344 -7732880.843 -23029099.321 10 0 60914 19800.00000 0 10282026.984 -6473050.901 -22428254.751 10 0 60914 20700.00000 0 12786530.589 -5444754.509 -21391838.093 10 0 60914 21600.00000 0 15216721.086 -4658351.852 -19940061.866 10 0 60914 22500.00000 0 17504219.880 -4111503.973 -18101188.482 10 0 60914 23400.00000 0 19583943.208 -3789468.219 -15910977.651 10 0 60914 24300.00000 0 21396659.098 -3665925.289 -13411989.786 10 0 60914 25200.00000 0 22891314.118 -3704301.862 -10652758.790 10 0 60914 26100.00000 0 24027033.580 -3859532.003 -7686850.196 10 0 60914 27000.00000 0 24774712.460 -4080182.348 -4571822.752 10 0 60914 27900.00000 0 25118131.299 -4310850.810 -1368113.443 10 0 60914 28800.00000 0 25054551.060 -4494737.167 1862132.501 10 0 60914 29700.00000 0 24594762.694 -4576276.717 5056264.031 10 0 60914 30600.00000 0 23762589.800 -4503725.579 8152335.908 10 0 60914 31500.00000 0 22593865.605 -4231588.299 11090306.121 10 0 60914 32400.00000 0 21134927.349 -3722785.040 13813196.076 10 0 60914 33300.00000 0 19440691.115 -2950466.595 16268191.317 10 0 60914 34200.00000 0 17572387.612 -1899400.168 18407661.755 10 0 60914 35100.00000 0 15595053.275 -566866.828 20190082.082 10 0 60914 36000.00000 0 13574881.091 1036968.199 21580834.970 10 0 60914 36900.00000 0 11576541.253 2889229.242 22552881.906 10 0 60914 37800.00000 0 9660582.814 4955042.259 23087289.019 10 0 60914 38700.00000 0 7881024.081 7188757.248 23173597.866 10 0 60914 39600.00000 0 6283231.667 9535631.789 22810033.952 10 0 60914 40500.00000 0 4902176.108 11933907.255 22003548.645 10 0 60914 41400.00000 0 3761136.426 14317192.800 20769693.116 10 0 60914 42300.00000 0 2870907.403 16617059.102 19132325.983 10 0 60914 43200.00000 0 2229542.506 18765734.713 17123159.432 10 0 60914 44100.00000 0 1822642.997 20698793.233 14781151.624 10 0 60914 45000.00000 0 1624180.941 22357719.236 12151756.336 10 0 60914 45900.00000 0 1597821.208 23692245.598 9286043.642 10 0 60914 46800.00000 0 1698686.440 24662363.943 6239708.293 10 0 60914 47700.00000 0 1875489.911 25239923.341 3071984.952 10 0 60914 48600.00000 0 2072945.417 25409749.507 -155508.370 10 0 60914 49500.00000 0 2234351.248 25170236.896 -3379975.648 10 0 60914 50400.00000 0 2304237.691 24533388.419 -6538672.608 10 0 60914 51300.00000 0 2230964.643 23524300.926 -9570136.020 10 0 60914 52200.00000 0 1969157.970 22180118.242 -12415387.601 10 0 60914 53100.00000 0 1481880.165 20548496.167 -15019088.075 10 0 60914 54000.00000 0 742442.241 18685644.557 -17330618.251 10 0 60914 54900.00000 0 -264220.748 16654029.372 -19305065.589 10 0 60914 55800.00000 0 -1540669.541 14519831.813 -20904096.897 10 0 60914 56700.00000 0 -3076613.627 12350271.551 -22096700.360 10 0 60914 57600.00000 0 -4849112.569 10210906.370 -22859782.940 10 0 60914 58500.00000 0 -6823317.667 8163021.146 -23178612.138 10 0 60914 59400.00000 0 -8953723.350 6261214.807 -23047094.343 10 0 60914 60300.00000 0 -11185876.331 4551285.224 -22467885.105 10 0 60914 61200.00000 0 -13458471.487 3068499.203 -21452329.896 10 0 60914 62100.00000 0 -15705747.439 1836318.364 -20020237.088 10 0 60914 63000.00000 0 -17860082.367 865632.434 -18199487.917 10 0 60914 63900.00000 0 -19854682.286 154530.347 -16025491.233 10 0 60914 64800.00000 0 -21626250.221 -311383.057 -13540493.640 10 0 60914 65700.00000 0 -23117525.448 -558139.626 -10792758.340 10 0 60914 66600.00000 0 -24279587.350 -622066.804 -7835628.502 10 0 60914 67500.00000 0 -25073828.152 -548010.475 -4726493.128 10 0 60914 68400.00000 0 -25473512.587 -387197.532 -1525675.343 10 0 60914 69300.00000 0 -25464859.658 -194828.996 1704735.419 10 0 60914 70200.00000 0 -25047601.605 -27505.740 4902084.787 10 0 60914 71100.00000 0 -24234996.962 59404.181 8004365.173 10 0 60914 72000.00000 0 -23053297.327 14345.194 10951414.422 10 0 60914 72900.00000 0 -21540690.230 -208008.225 13686078.318 10 0 60914 73800.00000 0 -19745762.214 -644598.330 16155314.694 10 0 60914 74700.00000 0 -17725546.170 -1322186.407 18311218.030 10 0 60914 75600.00000 0 -15543234.089 -2255986.818 20111945.128 10 0 60914 76500.00000 0 -13265650.145 -3448791.123 21522524.395 10 0 60914 77400.00000 0 -10960588.865 -4890620.073 22515533.444 10 0 60914 78300.00000 0 -8694128.544 -6558919.485 23071632.268 10 0 60914 79200.00000 0 -6528031.029 -8419293.352 23179941.804 10 0 60914 80100.00000 0 -4517335.416 -10426745.219 22838260.557 10 0 60914 81000.00000 0 -2708245.150 -12527377.744 22053114.747 10 0 60914 81900.00000 0 -1136395.936 -14660481.122 20839640.494 10 0 60914 82800.00000 0 174423.760 -16760924.626 19221299.561 10 0 60914 83700.00000 0 1213046.644 -18761752.574 17229433.238 10 0 60914 84600.00000 0 1981162.926 -20596877.047 14902662.074 10 0 60914 85500.00000 0 2493009.450 -22203755.075 12286142.199 10 0 60915 0.00000 0 2774525.031 -23525938.114 9430692.218 10 0 60915 900.00000 0 2862008.083 -24515387.189 6391805.595 10 0 60915 1800.00000 0 2800333.397 -25134454.199 3228571.474 10 0 60915 2700.00000 0 2640804.593 -25357447.695 2520.046 10 0 60915 3600.00000 0 2438733.608 -25171714.628 -3223580.772 10 0 60915 4500.00000 0 2250850.956 -24578192.580 -6386954.561 10 0 60915 5400.00000 0 2132657.663 -23591408.570 -9426046.380 10 0 60915 6300.00000 0 2135832.344 -22238924.196 -12281728.549 10 0 60915 7200.00000 0 2305804.513 -20560250.475 -14898457.758 10 0 60915 8100.00000 0 2679598.039 -18605278.222 -17225360.253 10 0 60915 9000.00000 0 3284036.969 -16432290.283 -19217223.487 10 0 60915 9900.00000 0 4134390.337 -14105639.487 -20835374.768 10 0 60915 10800.00000 0 5233513.812 -11693190.000 -22048429.987 10 0 60915 11700.00000 0 6571524.796 -9263629.351 -22832898.297 10 0 60915 12600.00000 0 8126025.025 -6883763.464 -23173631.649 10 0 60915 13500.00000 0 9862861.614 -4615907.239 -23064111.196 10 0 60915 14400.00000 0 11737394.932 -2515478.802 -22506565.792 10 0 60915 15300.00000 0 13696220.461 -628896.703 -21511920.989 10 0 60915 16200.00000 0 15679272.970 1008133.649 -20099580.080 10 0 60915 17100.00000 0 17622225.357 2371874.494 -18297041.845 10 0 60915 18000.00000 0 19459082.326 3451300.495 -16139362.614 10 0 60915 18900.00000 0 21124860.912 4248304.553 -13668473.165 10 0 60915 19800.00000 0 22558246.279 4777357.829 -10932363.622 10 0 60915 20700.00000 0 23704112.112 5064639.859 -7984152.054 10 0 60915 21600.00000 0 24515800.574 5146676.820 -4881054.681 10 0 60915 22500.00000 0 24957066.739 5068546.403 -1683277.512 10 0 60915 23400.00000 0 25003606.329 4881725.873 1547149.197 10 0 60915 24300.00000 0 24644102.951 4641674.746 4747571.136 10 0 60915 25200.00000 0 23880751.065 4405254.549 7855921.644 10 0 60915 26100.00000 0 22729232.729 4228094.862 10811921.475 10 0 60915 27000.00000 0 21218148.960 4162017.017 13558243.564 10 0 60915 27900.00000 0 19387929.197 4252624.304 16041620.458 10 0 60915 28800.00000 0 17289264.029 4537160.508 18213873.265 10 0 60915 29700.00000 0 14981126.053 5042727.306 20032842.588 10 0 60915 30600.00000 0 12528460.731 5784936.077 21463203.880 10 0 60915 31500.00000 0 9999642.640 6767051.539 22477151.810 10 0 60915 32400.00000 0 7463802.170 7979664.172 23054940.765 10 0 60915 33300.00000 0 4988132.933 9400906.456 23185271.192 10 0 60915 34200.00000 0 2635291.022 10997205.314 22865514.272 10 0 60915 35100.00000 0 460993.404 12724540.848 22101770.297 10 0 60915 36000.00000 0 -1488085.370 14530160.314 20908759.098 10 0 60915 36900.00000 0 -3176031.161 16354677.116 19309543.891 10 0 60915 37800.00000 0 -4578951.860 18134468.240 17335092.982 10 0 60915 38700.00000 0 -5685730.362 19804270.717 15023686.875 10 0 60915 39600.00000 0 -6498237.773 21299868.856 12420181.365 10 0 60915 40500.00000 0 -7030998.282 22560759.662 9575140.190 10 0 60915 41400.00000 0 -7310320.248 23532684.251 6543853.574 10 0 60915 42300.00000 0 -7372930.626 24169918.251 3385261.623 10 0 60915 43200.00000 0 -7264171.069 24437223.943 160803.692 10 0 60915 44100.00000 0 -7035832.805 24311381.001 -3066783.355 10 0 60915 45000.00000 0 -6743722.941 23782230.349 -6234693.764 10 0 60915 45900.00000 0 -6445066.424 22853186.338 -9281283.498 10 0 60915 46800.00000 0 -6195854.913 21541195.012 -12147277.844 10 0 60915 47700.00000 0 -6048256.120 19876139.849 -14776931.524 10 0 60915 48600.00000 0 -6048194.410 17899719.827 -17119117.956 10 0 60915 49500.00000 0 -6233206.000 15663847.023 -19128326.008 10 0 60915 50400.00000 0 -6630660.188 13228631.175 -20765544.603 10 0 60915 51300.00000 0 -7256422.253 10660035.858 -21999018.149 10 0 60915 52200.00000 0 -8114014.742 8027304.444 -22804858.538 10 0 60915 53100.00000 0 -9194312.666 5400263.357 -23167502.422 10 0 60915 54000.00000 0 -10475785.496 2846614.795 -23080005.674 10 0 60915 54900.00000 0 -11925275.855 429331.172 -22544170.083 10 0 60915 55800.00000 0 -13499282.289 -1795741.125 -21570500.540 10 0 60915 56700.00000 0 -15145692.451 -3781970.105 -20177994.156 10 0 60915 57600.00000 0 -16805894.268 -5493633.195 -18393765.767 10 0 60915 58500.00000 0 -18417176.911 -6907149.925 -16252517.372 10 0 60915 59400.00000 0 -19915321.310 -8011802.672 -13795861.830 10 0 60915 60300.00000 0 -21237272.056 -8809917.174 -11071513.882 10 0 60915 61200.00000 0 -22323779.038 -9316497.022 -8132364.047 10 0 60915 62100.00000 0 -23121898.421 -9558329.069 -5035453.239 10 0 60915 63000.00000 0 -23587248.324 -9572598.764 -1840867.766 10 0 60915 63900.00000 0 -23685924.763 -9405074.792 1389423.892 10 0 60915 64800.00000 0 -23395997.543 -9107940.371 4592770.109 10 0 60915 65700.00000 0 -22708523.303 -8737363.251 7707047.764 10 0 60915 66600.00000 0 -21628033.065 -8350907.326 10671863.112 10 0 60915 67500.00000 0 -20172473.520 -8004895.256 13429718.750 10 0 60915 68400.00000 0 -18372604.037 -7751833.439 15927124.327 10 0 60915 69300.00000 0 -16270873.991 -7638007.999 18115629.751 10 0 60915 70200.00000 0 -13919826.541 -7701353.120 19952761.320 10 0 60915 71100.00000 0 -11380094.517 -7969681.716 21402843.077 10 0 60915 72000.00000 0 -8718070.945 -8459353.215 22437687.900 10 0 60915 72900.00000 0 -6003350.069 -9174435.058 23037145.306 10 0 60915 73800.00000 0 -3306044.171 -10106393.987 23189495.568 10 0 60915 74700.00000 0 -694086.664 -11234331.176 22891682.459 10 0 60915 75600.00000 0 1769367.487 -12525752.622 22149379.896 10 0 60915 76500.00000 0 4028336.853 -13937843.929 20976890.632 10 0 60915 77400.00000 0 6036105.206 -15419197.414 19396878.228 10 0 60915 78300.00000 0 7756923.290 -16911920.375 17439936.599 10 0 60915 79200.00000 0 9167250.163 -18354037.138 15144004.490 10 0 60915 80100.00000 0 10256482.622 -19682084.657 12553635.346 10 0 60915 81000.00000 0 11027142.521 -20833792.931 9719135.995 10 0 60915 81900.00000 0 11494514.519 -21750737.334 6695590.337 10 0 60915 82800.00000 0 11685749.960 -22380850.685 3541786.906 10 0 60915 83700.00000 0 11638475.281 -22680688.371 319071.303 10 0 60915 84600.00000 0 11398964.464 -22617349.996 -2909853.644 10 0 60915 85500.00000 0 11019953.767 -22169975.372 -6082155.825 99